sat.trackr.live / text

‹ back to catalog

STARLINK-3054

NORAD 49167 · 2021-082AP

PAYLOAD ACTIVE UNKNOWN

§ Identity

Operator
Country
US
Launch date
2021-09-14
Launch site
AFWTR
Launch vehicle
Mass (kg)
RCS (m²)

Purposes: comms

External: N2YO · Heavens-Above · Gunter

§ Orbital elements

Epoch: 2026-05-25T02:29:52.175040Z

Period
96.11 min
Inclination
69.9992°
Eccentricity
0.0003170
Mean motion
14.98325419 rev/d
Perigee alt
569.9 km
Apogee alt
574.3 km
Semi-major
6,950.2 km
B*
6.8896e-5
RAAN
101.7821°
Arg perigee
269.3976°
Mean anomaly
90.6819°
Rev number
25,862

§ Raw data

STARLINK-30541 49167U 21082AP  26145.10407610  .00000729  00000+0  68896-4 0  99952 49167  69.9992 101.7821 0003170 269.3976  90.6819 14.98325419258628

JSON: /api/v1/satellites/49167 · /tle

For live sub-satellite position, see the globe view (requires WebGL).

§ Visibility from observer

Set your observer location to see the next 7 days of passes ≥ 10°. The values pass through the URL so the page stays shareable.

No JS? Fill the form by hand. The geolocation button needs JavaScript.